This is the latest recevied weather packets stored in our database for station/object KF7SOJ. If no packets are shown the sender has not sent any weather packets the latest 10 day(s).
| Time | Temp. | Humidity | Pressure | Rain* | Wind** | Luminosity | Snow |
|---|---|---|---|---|---|---|---|
| 1777390718 | 2.22° C | 86% | 933 hPa | 0 mm | - | 190 W/m² | - |
| 1777390416 | 1.67° C | 86% | 933.3 hPa | 0 mm | - | 169 W/m² | - |
| 1777390112 | 1.67° C | 86% | 933.1 hPa | 0 mm | - | 153 W/m² | - |
| 1777389808 | 1.67° C | 87% | 933 hPa | 0 mm | - | 177 W/m² | - |
| 1777389506 | 1.67° C | 87% | 933 hPa | 0 mm | - | 214 W/m² | - |
| 1777389202 | 1.67° C | 89% | 933.2 hPa | 0 mm | - | 239 W/m² | - |
| 1777388900 | 1.11° C | 88% | 933.2 hPa | 0 mm | - | 263 W/m² | - |
| 1777388597 | 0.56° C | 88% | 933.1 hPa | 0 mm | - | 243 W/m² | - |
| 1777388293 | 0.56° C | 88% | 933.2 hPa | 0 mm | - | 179 W/m² | - |
| 1777387993 | 0.56° C | 89% | 933.3 hPa | 0 mm | - | 159 W/m² | - |
| 1777387690 | 0.56° C | 89% | 933.2 hPa | 0 mm | - | 166 W/m² | - |
| 1777387386 | 0.56° C | 89% | 933.1 hPa | 0 mm | - | 160 W/m² | - |
| 1777387080 | 0.56° C | 89% | 933.2 hPa | 0 mm | - | 142 W/m² | - |
| 1777386777 | 0.56° C | 89% | 933.2 hPa | 0 mm | - | 137 W/m² | - |
| 1777386475 | 0° C | 89% | 932.9 hPa | 0 mm | - | 127 W/m² | - |
| 1777386171 | 0° C | 89% | 933 hPa | 0 mm | - | 126 W/m² | - |
| 1777385868 | 0° C | 90% | 932.9 hPa | 0 mm | - | 114 W/m² | - |
| 1777385565 | 0° C | 91% | 932.8 hPa | 0 mm | - | 100 W/m² | - |
| 1777385262 | -0.56° C | 90% | 932.9 hPa | 0 mm | - | 87 W/m² | - |
| 1777384957 | -0.56° C | 90% | 932.9 hPa | 0 mm | - | 77 W/m² | - |
| 1777384655 | -0.56° C | 90% | 932.9 hPa | 0 mm | - | 72 W/m² | - |
| 1777384355 | -1.11° C | 89% | 933 hPa | 0 mm | - | 71 W/m² | - |
| 1777384051 | -1.11° C | 89% | 932.9 hPa | 0 mm | - | 65 W/m² | - |
| 1777383747 | -1.11° C | 89% | 932.9 hPa | 0 mm | - | 65 W/m² | - |
| 1777383444 | -0.56° C | 88% | 932.7 hPa | 0 mm | - | 76 W/m² | - |
* Rain latest hour (hover to see other rain measurements)
** Current wind speed in m/s (hover to see current wind gust speed)